Find Starlink 34299

NORAD ID: 64383 Int'l Des: 2025-127 Owner: SPXS Country: US Constellation: starlink operational
LEOCIRCULAR

当前视图

正在加载3D地球...

About Starlink 34299

Starlink 34299 (NORAD 64383) is a starlink constellation satellite (v2 mini) launched Jun 13, 2025 by SPXS of US. It operates in LEO, CIRCULAR orbit with a mass of 575.00 kg.

即将过境

Passes for default location (London). Set your location on the main map for personalized predictions.

高度历史

Loading altitude history...

两行轨道根数

1 64383U 25127P 26237.26246390 .00018596 00000-0 68342-3 0 9998
2 64383 43.0019 308.1585 0001243 250.4868 109.5850 15.27588444 68196
Epoch: Aug 25, 2026 • Age: 6 hours

当前状态

高度 491.8 km
远地点 / 近地点 N/A
速度 7.62 km/s
星下点 -34.11°S, 18.83°E
发射日期 Jun 13, 2025
运行时间 1.1 years
类型 internet

技术详情

分类 Payload
质量 575.00 kg
干质量 530.00 kg
总质量 575.00 kg
长度 0.30 m
直径 4.10 m
跨度 29.00 m
形状 Box + pan
制造商 SPXS
平台类型 Starlink V2MO
阶段状态 In Orbit
所有者/国家 SPXS/US

Most Searched